TimeMDT,TemperatureF,Dew PointF,Humidity,Sea Level PressureIn,VisibilityMPH,Wind Direction,Wind SpeedMPH,Gust SpeedMPH,PrecipitationIn,Events,Conditions,WindDirDegrees,DateUTC
12:53 AM,64.0,19.9,18,29.66,10.0,SSW,13.8,-,N/A,,Clear,200,2014-03-11 06:53:00
1:53 AM,64.0,19.9,18,29.62,10.0,SW,17.3,-,N/A,,Clear,230,2014-03-11 07:53:00
2:53 AM,64.0,15.1,15,29.61,10.0,WSW,18.4,-,N/A,,Clear,240,2014-03-11 08:53:00
3:53 AM,64.9,17.1,16,29.56,10.0,WSW,24.2,32.2,N/A,,Clear,250,2014-03-11 09:53:00
4:53 AM,64.9,18.0,16,29.55,10.0,WSW,24.2,33.4,N/A,,Clear,250,2014-03-11 10:53:00
5:53 AM,64.0,18.0,17,29.58,10.0,West,13.8,26.5,N/A,,Clear,270,2014-03-11 11:53:00
6:53 AM,63.0,19.0,18,29.62,10.0,NNE,9.2,23.0,N/A,,Clear,20,2014-03-11 12:53:00
7:53 AM,62.1,19.9,20,29.66,10.0,West,12.7,-,N/A,,Clear,280,2014-03-11 13:53:00
8:53 AM,68.0,19.0,15,29.65,10.0,WSW,25.3,31.1,N/A,,Clear,240,2014-03-11 14:53:00
9:53 AM,72.0,18.0,13,29.64,10.0,WSW,26.5,34.5,N/A,,Clear,250,2014-03-11 15:53:00
10:53 AM,75.9,12.9,9,29.65,10.0,West,27.6,36.8,0.00,,Unknown,270,2014-03-11 16:53:00
11:53 AM,77.0,10.0,8,29.64,10.0,West,17.3,26.5,N/A,,Clear,280,2014-03-11 17:53:00
12:53 PM,79.0,10.9,8,29.63,10.0,WNW,15.0,21.9,N/A,,Clear,290,2014-03-11 18:53:00
1:53 PM,80.1,8.1,6,29.60,10.0,West,15.0,21.9,N/A,,Clear,280,2014-03-11 19:53:00
2:53 PM,82.9,8.1,6,29.58,10.0,West,11.5,18.4,N/A,,Clear,270,2014-03-11 20:53:00
3:53 PM,82.0,7.0,6,29.57,10.0,North,-9999.0,-,N/A,,Clear,0,2014-03-11 21:53:00
4:53 PM,82.9,6.1,5,29.57,10.0,WSW,8.1,19.6,N/A,,Clear,240,2014-03-11 22:53:00
5:53 PM,81.0,1.9,5,29.59,10.0,WSW,20.7,-,N/A,,Clear,250,2014-03-11 23:53:00
6:53 PM,75.0,3.9,6,29.65,10.0,Variable,4.6,-,N/A,,Clear,0,2014-03-12 00:53:00
7:53 PM,72.0,5.0,7,29.70,10.0,North,5.8,-,N/A,,Clear,360,2014-03-12 01:53:00
8:53 PM,61.0,8.1,12,29.75,10.0,WNW,6.9,-,N/A,,Clear,290,2014-03-12 02:53:00
9:53 PM,66.9,9.0,10,29.84,7.0,North,39.1,47.2,N/A,,Partly Cloudy,10,2014-03-12 03:53:00
9:58 PM,63.0,21.9,21,29.98,1.5,NNE,31.1,47.2,N/A,,Haze,30,2014-03-12 03:58:00
10:03 PM,61.0,27.0,27,29.99,1.0,NNE,33.4,43.7,N/A,,Haze,30,2014-03-12 04:03:00
10:18 PM,59.0,28.0,31,30.02,1.0,NNE,26.5,46.0,N/A,,Haze,30,2014-03-12 04:18:00
10:53 PM,55.9,27.0,33,29.97,1.2,NNE,23.0,36.8,N/A,,Haze,30,2014-03-12 04:53:00
11:32 PM,52.0,26.1,37,30.14,2.0,NNE,23.0,29.9,N/A,,Haze,20,2014-03-12 05:32:00
11:53 PM,52.0,27.0,38,30.05,2.5,NNE,21.9,-,N/A,,Haze,20,2014-03-12 05:53:00